SCP
0 0 0 0 0 0 0 0 0 0 0 0 0 0 0 0 0 0 0 0 0 0 0 0 0 0 0 0 0 0 0 0 0 0 0 0 0 0 0 0 0 0 0 0
0 0 0 0 0 0 0 0 0 0 0 0 0 0 0 0 0 0 0 0 0 0 0 0 0 0 0 0 0 0 0 0 0 0 0 0 0 0 0 0 0 0 0 0
0 0 0 0 0 0 0 0 0 0 0 0 0 0 0 0 0 0 0 0 0 0 0 0 0 0 0 0 0 0 0 0 0 0 0 0 0 0 0 0 0 0 0 0
0 0 0 0 0 0 0 0 0 0 0 0 0 0 0 0 0 0 0 0 0 0 0 0 0 0 0 0 0 0 0 0 0 0 0 0 0 0 0 0 0 0 0 0
0 0 0 0 0 0 0 0 0 0 0 0 0 0 0 0 0 0 0 0 0 0 0 0 0 0 0 0 0 0 0 0 0 0 0 0 0 0 0 0 0 0 0 0
0 0 0 0 0 0 0 0 0 0 0 0 0 0 0 0 0 0 0 0 0 0 0 0 0 0 0 0 0 0 0 0 0 0 0 0 0 0 0 0 0 0 0 0
0 0 0 0 0 0 0 0 0 0 0 0 0 0 0 0 0 0 0 0 0 0 0 0 0 0 0 0 0 0 0 0 0 0 0 0 0 0 0 0 0 0 0 0
0 0 0 0 0 0 0 0 0 0 0 0 0 0 0 0 0 0 0 0 0 0 0 0 0 0 0 0 0 0 0 0 0 0 0 0 0 0 0 0 0 0 0 0
0 0 0 0 0 0 0 0 0 0 0 0 0 0 0 0 0 0 0 0 0 0 0 0 0 0 0 0 0 0 0 0 0 0 0 0 0 0 0 0 0 0 0 0
0 0 0 0 0 0 0 0 0 0 0 0 0 0 0 0 0 0 0 0 0 0 0 0 0 0 0 0 0 0 0 0 0 0 0 0 0 0 0 0 0 0 0 0
0 0 0 0 0 0 0 0 0 0 0 0 0 0 0 0 0 0 0 0 0 0 0 0 0 0 0 0 0 0 0 0 0 -0 -0 -0 -0 0 0 0 0 0 0 0
0 0 0 0 0 0 0 0 0 0 0 0 0 0 0 0 0 0 0 0 0 0 0 0 0 0 0 0 0 0 0 0 0 0 -0 -0 -0 -0 0 0 0 0 0 0
0 0 0 0 0 0 0 0 0 0 0 0 0 0 0 0 0 0 0 0 0 0 0 0 0 0 0 0 0 0 0 0 0 0 0 -0 -0 -0 0 0 0 0 0 0
0 0 0 0 0 0 0 0 0 0 0 0 0 0 0 0 0 0 0 0 0 0 0 0 0 0 0 0 0 0 0 0 0 0 0 0 0 0 0 0 0 0 0 0
0 0 0 0 0 0 0 0 0 0 0 0 0 0 0 0 0 0 0 0 0 0 0 0 0 0 0 0 0 0 0 0 0 0 0 0 0 0 0 0 0 0 0 0
0 0 0 0 0 0 0 0 0 0 0 0 0 0 0 0 0 0 0 0 0 0 0 0 0 0 0 0 0 0 0 0 0 0 0 0 0 0 0 0 0 0 0 0
0 0 0 0 0 0 0 0 0 0 0 0 0 0 0 0 0 0 0 0 0 0 0 0 0 0 0 0 0 0 0 0 0 0 0 0 0 0 0 0 0 0 0 0
0 0 0 0 0 0 0 -0 0 0 0 0 0 0 0 0 0 0 0 0 0 0 0 0 0 0 0 0 0 0 0 0 0 0 0 0 0 0 0 0 0 0 0 0
0 0 0 0 0 0 0 -0 0 0 0 0 0 0 0 0 0 0 0 0 0 0 0 0 0 0 0 0 0 0 0 0 0 0 0 0 0 0 0 0 0 0 0 0
0 0 0 0 0 0 0 -0 0 0 0 0 0 0 0 0 0 0 0 0 0 0 0 0 0 0 0 0 0 0 0 0 0 0 0 0 0 0 0 0 0 0 0 0
0 0 0 0 0 0 0 0 0 0 0 0 0 0 0 0 0 0 0 0 0 0 0 0 0 0 0 0 0 0 0 0 0 0 0 0 0 0 0 0 0 0 0 0
0 0 0 0 0 0 0 0 0 0 0 0 0 0 0 0 0 0 0 0 0 0 0 0 0 0 0 0 0 0 0 0 0 0 0 0 0 0 0 0 0 0 0 0
0 0 0 0 0 0 0 0 0 0 0 0 0 0 0 0 0 0 0 0 0 0 0 0 0 0 0 0 0 0 0 0 0 0 0 0 0 0 0 0 0 0 0 -0
0 0 0 0 0 0 -0 0 0 0 0 0 0 0 0 0 0 0 0 0 0 0 0 0 0 0 0 0 0 0 0 0 0 0 0 0 0 0 0 0 0 0 0 0
-0 0 0 0 0 0 0 0 0 0 0 0 0 0 0 0 0 0 0 0 0 0 0 0 0 0 0 0 0 0 0 0 0 0 0 0 0 0 0 0 0 0 0 0
-0 0 0 0 0 0 0 0 0 0 0 0 0 0 0 0 0 0 0 0 0 0 0 0 0 0 0 0 0 0 0 0 0 0 0 0 0 0 0 0 0 0 0 0
Wind_Speed
5 6 3 1 1 2 2 2 4 6 3 2 5 8 9 5 3 3 3 3 4 4 4 3 2 1 1 2 1 1 1 2 1 1 0 1 0 0 1 1 1 1 1 2
5 2 2 2 1 0 1 2 4 5 2 2 4 8 7 4 4 4 3 3 4 4 5 4 3 2 1 1 0 0 1 2 1 0 1 1 1 1 0 0 1 1 1 2
2 2 2 0 1 1 2 3 4 4 6 2 3 6 4 3 2 2 2 2 3 3 4 4 4 2 2 2 1 1 1 1 1 1 0 1 1 1 1 1 0 0 1 1
0 2 1 1 1 0 3 3 3 3 2 4 2 5 6 3 4 4 4 4 4 4 4 3 3 3 2 3 2 2 2 1 0 0 0 2 1 1 1 1 1 0 0 1
2 2 1 1 2 2 4 3 2 1 1 2 1 2 8 2 4 6 5 5 4 4 3 3 3 2 2 2 2 2 2 2 1 1 1 2 1 0 0 0 1 0 0 0
1 1 0 2 2 1 2 2 2 2 3 2 2 2 8 3 4 6 6 6 5 4 4 3 2 2 2 2 2 2 3 3 2 1 1 2 2 1 0 0 1 1 1 0
4 2 2 1 2 3 3 4 4 6 4 5 1 3 9 4 3 4 6 6 5 4 4 4 3 2 2 2 2 2 2 3 2 2 1 1 2 2 2 2 2 1 1 1
2 5 2 2 1 0 1 3 4 3 4 6 3 7 8 3 3 4 4 4 4 4 4 4 3 2 2 2 2 2 2 2 2 1 1 1 1 1 1 2 2 2 2 2
1 5 1 1 1 2 1 1 2 3 1 4 7 8 8 2 4 5 5 5 5 4 5 4 4 3 2 2 3 2 2 2 2 2 1 2 1 0 1 1 1 1 1 1
3 4 3 2 1 2 1 3 3 3 1 5 7 6 6 5 5 5 5 5 6 5 5 5 3 3 3 3 3 3 2 2 2 2 2 1 1 1 1 1 1 1 1 1
2 2 4 2 2 3 1 2 2 2 3 3 6 9 5 4 3 4 5 6 6 6 5 5 4 3 3 3 3 3 3 2 2 2 2 2 1 1 1 1 1 1 1 1
1 2 4 5 2 1 3 3 4 3 4 4 4 11 3 3 3 3 6 7 6 5 5 5 4 3 3 3 3 3 2 2 2 2 2 2 1 1 1 1 2 2 1 1
2 2 3 5 2 1 1 2 3 2 2 4 5 11 2 4 5 6 6 7 6 6 5 4 3 3 3 4 3 3 3 2 2 2 2 2 2 1 1 2 1 1 1 1
3 3 5 7 6 2 3 3 3 3 3 5 10 13 10 8 9 9 7 6 6 5 5 4 4 4 4 4 4 3 3 2 2 2 2 2 2 2 2 1 1 1 1 2
3 3 5 7 6 4 6 7 6 8 8 9 10 10 13 9 9 8 7 6 6 6 6 5 5 4 4 4 4 4 4 3 3 2 2 3 3 2 2 1 1 1 1 2
1 2 2 6 4 5 8 9 8 9 8 10 10 14 9 7 6 6 6 6 6 7 6 5 4 4 4 4 4 5 4 4 3 2 3 3 3 3 3 2 2 1 1 2
3 2 1 5 4 4 9 8 8 6 6 6 9 11 6 7 8 7 7 6 6 6 6 5 4 4 4 4 4 4 5 4 3 2 3 3 3 3 3 3 1 1 2 1
5 3 2 3 3 6 7 1 4 5 6 6 7 7 6 7 8 7 5 4 6 6 6 5 5 5 4 4 4 4 4 3 3 3 3 3 3 3 3 2 2 2 2 2
3 4 2 1 3 10 6 1 2 3 7 4 7 8 7 6 6 5 3 3 4 5 5 4 4 4 4 4 4 3 3 3 3 4 4 3 3 3 3 2 2 2 2 2
2 2 2 2 3 7 6 2 1 1 6 3 3 6 5 4 4 6 6 6 6 5 4 4 4 4 4 5 4 3 3 3 4 4 4 4 3 3 3 3 3 2 2 2
1 1 3 5 6 10 4 1 1 2 6 4 3 4 3 3 5 6 7 6 5 4 4 4 4 4 4 5 4 3 4 4 5 4 4 4 3 3 3 2 2 2 2 1
6 5 5 4 5 10 1 3 4 5 3 3 4 3 4 5 5 5 5 5 5 5 5 5 4 4 5 4 4 4 5 5 5 4 4 4 3 3 3 2 1 1 1 1
7 7 6 8 8 3 4 5 3 2 3 4 4 4 4 4 5 5 5 5 5 5 5 4 4 5 5 5 4 4 6 5 4 4 3 3 4 3 3 2 2 1 1 1
4 1 3 5 7 5 5 4 4 3 4 5 4 4 3 4 5 5 5 5 5 5 4 4 4 4 5 5 5 5 5 5 4 4 4 3 3 3 2 2 2 1 1 1
4 4 3 6 6 5 4 5 5 5 5 5 4 4 4 4 5 5 5 5 4 4 4 3 3 4 5 5 5 5 5 4 4 3 3 3 3 2 2 2 1 2 1 2
4 6 5 7 5 4 6 4 4 5 5 5 5 5 4 4 5 5 5 4 4 4 4 4 4 4 5 5 5 5 5 4 3 3 3 2 2 2 2 2 3 4 3 5
Wind_Direction
16 56 42 284 212 192 186 210 262 268 275 294 257 275 285 279 267 268 285 295 303 306 312 329 333 356 49 62 65 21 14 2 25 21 324 185 196 47 82 89 70 99 100 104
39 27 281 264 209 185 203 246 267 293 309 282 281 280 275 255 235 235 249 276 294 317 330 339 352 5 3 19 55 43 1 0 355 304 239 202 193 201 134 113 100 102 114 121
127 260 298 317 19 347 260 225 248 283 323 334 329 302 280 295 294 311 297 284 302 304 306 316 329 340 348 348 334 337 338 330 327 324 303 93 80 74 40 7 353 91 123 134
349 312 313 331 301 187 270 249 263 280 340 306 34 295 285 303 308 310 311 317 316 318 310 306 313 326 332 327 336 356 356 352 53 74 78 116 125 170 249 256 246 282 95 143
304 336 346 281 284 236 251 296 278 236 179 310 344 245 282 327 303 307 307 305 311 309 299 294 299 295 312 330 342 352 6 17 39 89 118 126 124 161 278 261 130 155 202 193
278 306 246 261 306 242 288 360 40 61 71 301 244 204 279 266 276 308 315 312 312 310 308 306 321 337 337 352 360 3 18 11 11 40 112 149 155 170 147 299 183 205 206 189
335 328 351 13 1 3 36 58 12 355 355 261 248 234 255 260 275 284 297 304 305 309 312 321 339 337 328 341 346 348 2 356 354 11 13 208 185 185 199 216 207 206 204 197
338 302 319 9 88 260 354 121 146 232 258 287 296 246 256 254 295 308 307 305 315 317 313 307 304 306 317 325 330 333 331 328 331 354 338 305 235 203 205 210 209 212 217 214
203 270 327 8 2 129 113 150 164 144 285 285 273 283 295 296 324 331 332 331 321 314 312 307 310 314 315 316 315 303 301 313 318 327 332 325 288 215 237 250 212 222 239 225
169 268 289 311 43 33 128 146 99 119 251 282 288 279 273 304 310 312 315 312 310 316 317 314 301 303 309 307 310 309 298 296 314 327 315 318 340 309 260 262 251 245 261 238
150 214 301 341 203 215 97 111 129 157 188 211 282 274 231 247 276 280 286 293 297 303 304 302 297 303 310 311 313 309 308 321 327 317 321 322 319 324 307 253 250 247 241 230
151 136 271 260 251 165 168 182 162 181 237 207 243 272 256 261 289 286 293 301 304 302 305 305 301 307 310 309 310 300 302 310 311 314 315 306 312 326 317 292 267 258 247 239
141 121 329 332 340 10 276 215 191 174 174 205 226 267 308 333 318 310 301 300 302 305 311 312 304 300 302 307 316 314 314 309 316 324 320 320 314 305 296 294 290 271 258 244
121 168 203 233 251 234 252 247 207 174 209 238 235 262 291 308 310 308 303 296 294 297 303 305 300 298 307 315 317 314 314 310 314 323 321 306 292 288 283 289 297 281 264 241
120 237 246 260 269 253 249 250 223 216 222 230 254 263 276 291 291 290 292 297 300 305 306 301 301 307 315 321 322 319 317 320 320 322 313 303 300 300 291 286 268 256 251 256
146 239 275 279 263 253 264 260 238 235 240 247 270 277 278 298 303 302 302 299 301 301 300 303 308 313 312 313 313 312 310 311 312 301 294 301 310 304 289 272 244 229 242 256
187 191 268 281 310 321 277 244 216 227 227 214 240 262 313 318 313 304 299 297 296 298 303 304 303 297 298 299 301 301 304 312 312 299 301 305 304 296 286 274 252 243 244 250
167 166 216 292 356 260 252 204 199 230 251 228 257 285 297 291 301 294 287 291 298 302 305 307 310 313 311 307 308 308 313 316 314 308 307 308 303 293 289 272 247 240 242 238
167 165 192 234 272 278 292 254 180 219 277 240 250 278 302 316 317 310 313 309 298 303 309 307 310 315 321 321 316 317 322 324 326 319 305 299 297 296 288 266 250 234 232 242
72 117 165 191 237 256 268 259 222 146 286 291 255 280 302 338 323 302 325 328 323 326 330 329 333 339 339 332 331 331 325 327 318 311 306 302 296 285 279 259 250 236 234 244
109 161 205 221 240 263 266 256 118 176 271 316 284 276 267 254 260 293 318 325 326 331 335 340 343 342 333 333 339 336 327 315 307 309 311 316 313 298 286 273 250 232 242 251
184 187 207 197 226 258 217 127 188 236 288 294 285 279 267 276 296 310 321 325 331 336 340 342 340 334 333 339 343 334 323 316 317 317 319 321 320 312 316 315 297 255 226 241
203 199 199 203 223 259 186 206 240 271 281 281 278 287 281 286 293 306 311 314 320 325 330 335 334 331 335 338 338 323 316 323 325 324 323 322 323 323 328 327 317 306 266 238
246 216 221 257 264 266 247 263 285 275 270 283 286 287 276 279 288 298 304 311 316 320 324 328 332 331 329 329 325 313 316 323 325 322 321 322 325 328 336 327 322 316 298 270
229 183 228 258 279 303 271 253 269 286 292 298 305 296 283 278 289 292 299 302 305 313 317 319 318 316 315 321 320 320 322 322 321 318 319 322 323 323 327 324 324 302 284 263
196 190 206 246 244 242 272 282 276 279 285 290 297 302 298 281 282 291 294 296 302 309 315 317 318 315 315 319 319 322 324 323 320 318 321 318 318 315 317 317 321 320 311 318